Theta_e
337 332 330 331 329 326 325 323 325 324 324 323 322 322 323 323 324 326 325 327 327 325
330 329 326 326 325 322 323 320 320 320 320 319 318 318 318 315 318 319 321 322 322 320
325 324 324 322 321 320 320 319 318 318 318 318 318 318 319 317 318 318 317 317 318 318
321 321 321 319 319 319 319 318 317 317 317 317 317 318 318 318 316 315 316 317 316 315
319 319 318 317 317 318 317 316 315 316 316 315 315 316 316 315 315 314 314 315 315 314
317 316 316 316 316 316 315 315 315 315 315 314 315 316 317 316 316 316 316 316 316 316
314 315 314 314 314 314 314 314 314 316 316 316 316 317 316 316 316 317 317 317 316 316
313 313 312 312 313 314 314 314 315 315 316 317 316 312 312 313 315 316 316 316 316 317
309 310 310 311 312 313 313 315 315 316 316 316 314 302 302 305 312 314 312 313 315 317
308 308 309 310 310 312 314 315 315 315 315 311 310 298 297 299 311 312 313 313 313 314
306 307 308 309 310 311 314 314 313 312 312 312 306 297 296 296 312 314 314 314 315 315
305 305 306 307 309 311 311 313 313 312 311 307 306 296 295 297 307 309 312 315 316 316
304 304 304 308 309 310 311 312 312 311 311 303 304 296 294 294 303 304 307 315 316 302
304 305 306 308 309 308 310 311 309 309 309 304 301 301 294 293 299 300 306 311 313 315
Wind_Speed
11 9 8 8 6 6 6 7 6 7 6 7 7 7 8 7 7 7 6 6 5 5
12 11 10 9 8 7 7 6 7 6 6 6 6 6 7 3 6 8 8 7 5 7
12 11 10 10 10 9 7 6 6 6 7 6 6 7 7 5 5 7 7 7 6 8
11 10 10 9 8 7 6 6 7 7 7 7 7 7 7 7 8 8 8 8 8 9
10 10 9 8 7 6 6 6 7 7 7 7 7 7 8 9 8 9 9 9 10 10
9 8 7 6 6 6 6 6 7 7 8 8 8 8 7 7 8 9 10 10 10 11
8 7 7 6 6 6 6 7 7 7 8 8 8 8 10 10 10 11 10 10 11 11
7 7 7 7 7 6 7 6 7 7 7 7 8 9 11 12 12 12 12 12 12 11
7 6 7 7 7 6 6 6 6 7 7 8 7 11 12 12 12 12 11 11 12 11
6 6 7 6 6 5 5 6 7 7 10 8 8 13 15 17 10 10 10 10 10 10
7 6 6 5 4 4 5 6 7 7 7 8 7 14 17 21 10 9 10 10 10 11
7 6 6 5 5 5 6 6 7 7 7 8 8 13 17 17 9 10 11 10 9 9
5 5 5 5 6 5 5 5 7 7 7 9 9 11 16 16 8 10 9 9 9 13
5 5 4 5 5 5 6 5 7 8 6 8 11 11 17 19 10 9 7 7 9 10
Wind_Direction
103 102 100 74 80 65 65 56 42 33 21 11 5 10 357 333 334 339 326 311 320 295
88 83 86 83 75 70 44 50 38 23 13 9 2 2 348 7 310 314 305 308 289 293
90 90 87 77 66 59 48 32 18 9 6 352 346 352 338 325 321 306 306 300 327 306
90 84 77 72 62 51 36 14 8 1 340 335 334 338 318 313 295 308 306 305 300 305
80 75 70 61 49 29 13 3 355 339 328 326 330 324 318 317 321 314 310 313 312 310
71 69 61 49 26 6 355 354 345 329 327 333 325 322 323 324 327 316 315 312 309 305
57 45 37 19 7 355 349 346 338 338 331 335 333 332 352 336 325 316 312 307 302 301
33 25 15 7 356 352 347 337 332 332 334 341 324 30 348 328 318 313 313 314 306 296
15 10 5 359 349 332 339 341 324 344 336 353 13 14 1 337 314 305 313 310 318 312
6 4 3 345 334 348 345 326 355 353 8 356 36 19 354 337 311 319 316 315 315 317
353 356 347 327 344 336 336 356 358 12 350 4 55 21 353 339 342 332 331 328 323 333
356 347 335 341 341 348 342 343 349 2 12 20 17 19 359 350 348 338 337 333 338 331
342 328 323 338 334 347 338 344 354 6 21 33 6 17 4 360 344 346 340 341 356 81
339 329 332 326 330 358 338 5 7 22 33 24 21 0 4 352 348 349 337 349 4 3